Weather History for Rockland, ME

Change the Weather History Date:

Wednesday, April 17, 2013

  Actual Average Record
Temperature  
Mean Temperature 53 °F -  
Max Temperature 60 °F 48 °F 64 °F (2002)
Min Temperature 46 °F 32 °F 19 °F (2003)
Degree Days  
Heating Degree Days 12    
Growing Degree Days 3 (Base 50)    
Moisture  
Dew Point 30 °F    
Average Humidity 46    
Maximum Humidity 94    
Minimum Humidity 22    
Precipitation  
Precipitation 0.00 in - - ()
Sea Level Pressure  
Sea Level Pressure 30.12 in    
Wind  
Wind Speed 12 mph (NW)    
Max Wind Speed 23 mph    
Max Gust Speed 32 mph    
Visibility 10 miles    
Events      
Averages and records for this station are not official NWS values.
T = Trace of Precipitation, MM = Missing Value Source: NWS Daily Summary

Daily Weather History Graph

Daily Weather History Graph

Search for Another Location

Airport:

Trip Planner

Search our weather history database for the weather conditions in past years. The results will help you decide how hot, cold, wet, or windy it might be!

Date:

Astronomy

Apr. 17, 2013 Rise Set
Actual Time 5:49 AM EDT 7:23 PM EDT
Civil Twilight 5:19 AM EDT 7:53 PM EDT
Nautical Twilight 4:42 AM EDT 8:30 PM EDT
Astronomical Twilight 4:03 AM EDT 9:09 PM EDT
Moon 10:55 AM EDT (4/17) 1:03 AM EDT (4/17)
Length of Visible Light 14h 34m
Length of Day
13h 33m
Waxing Crescent, 42% of the Moon is Illuminated
Apr 17
Waxing Crescent
Apr 18
First Quarter
Apr 25
Full
May 2
Last Quarter
May 9
New

Hourly Weather History & Observations

Time (EDT) Temp. Windchill Dew Point Humidity Pressure Visibility Wind Dir Wind Speed Gust Speed Precip Events Conditions
12:15 AM 48.2 °F - 44.6 °F 87% 29.93 in 10.0 mi SW 16.1 mph 24.2 mph N/A   Mostly Cloudy
12:35 AM 48.2 °F - 44.6 °F 87% 29.93 in 10.0 mi WSW 23.0 mph 31.1 mph N/A   Scattered Clouds
12:55 AM 48.2 °F - 44.6 °F 87% 29.94 in 10.0 mi WSW 18.4 mph 32.2 mph N/A   Clear
1:15 AM 48.2 °F - 44.6 °F 87% 29.95 in 10.0 mi WSW 17.3 mph 23.0 mph N/A   Mostly Cloudy
1:55 AM 48.2 °F - 46.4 °F 93% 29.96 in 10.0 mi WSW 9.2 mph - N/A   Mostly Cloudy
2:15 AM 48.2 °F - 46.4 °F 93% 29.96 in 10.0 mi West 10.4 mph - N/A   Mostly Cloudy
2:35 AM 48.2 °F - 46.4 °F 93% 29.97 in 10.0 mi West 8.1 mph - N/A   Mostly Cloudy
2:55 AM 50.0 °F - 48.2 °F 94% 29.98 in 10.0 mi WNW 5.8 mph - N/A   Mostly Cloudy
3:15 AM 51.8 °F - 46.4 °F 82% 29.99 in 10.0 mi WNW 12.7 mph 17.3 mph N/A   Partly Cloudy
3:35 AM 51.8 °F - 44.6 °F 76% 30.00 in 10.0 mi WNW 11.5 mph 18.4 mph N/A   Clear
3:55 AM 50.0 °F - 39.2 °F 66% 30.01 in 10.0 mi WNW 10.4 mph 17.3 mph N/A   Clear
4:15 AM 48.2 °F - 37.4 °F 66% 30.02 in 10.0 mi WNW 9.2 mph - N/A   Clear
4:35 AM 48.2 °F - 35.6 °F 62% 30.02 in 10.0 mi WNW 10.4 mph 18.4 mph N/A   Clear
4:55 AM 48.2 °F - 33.8 °F 58% 30.03 in 10.0 mi WNW 9.2 mph 17.3 mph N/A   Clear
5:15 AM 48.2 °F - 33.8 °F 58% 30.03 in 10.0 mi West 13.8 mph 19.6 mph N/A   Clear
5:35 AM 46.4 °F 42.9 °F 33.8 °F 62% 30.04 in 10.0 mi NW 6.9 mph - N/A   Clear
5:55 AM 46.4 °F 42.9 °F 32.0 °F 57% 30.05 in 10.0 mi NW 6.9 mph 18.4 mph N/A   Clear
6:15 AM 46.4 °F 42.9 °F 32.0 °F 57% 30.07 in 10.0 mi NNW 6.9 mph - N/A   Clear
6:35 AM 46.4 °F 43.5 °F 30.2 °F 53% 30.07 in 10.0 mi WNW 5.8 mph - N/A   Clear
7:15 AM 46.4 °F 42.4 °F 32.0 °F 57% 30.08 in 10.0 mi WNW 8.1 mph - N/A   Clear
7:35 AM 48.2 °F - 30.2 °F 50% 30.09 in 10.0 mi West 10.4 mph - N/A   Clear
7:55 AM 48.2 °F - 30.2 °F 50% 30.09 in 10.0 mi WNW 6.9 mph - N/A   Clear
8:15 AM 48.2 °F - 30.2 °F 50% 30.09 in 10.0 mi NW 11.5 mph - N/A   Clear
8:35 AM 50.0 °F - 28.4 °F 43% 30.10 in 10.0 mi WNW 13.8 mph 19.6 mph N/A   Clear
8:55 AM 51.8 °F - 28.4 °F 41% 30.10 in 10.0 mi NW 11.5 mph 18.4 mph N/A   Clear
9:15 AM 51.8 °F - 28.4 °F 41% 30.11 in 10.0 mi WNW 13.8 mph 20.7 mph N/A   Clear
9:35 AM 51.8 °F - 30.2 °F 44% 30.12 in 10.0 mi NW 9.2 mph 23.0 mph N/A   Clear
10:15 AM 53.6 °F - 30.2 °F 41% 30.12 in 10.0 mi WNW 9.2 mph 16.1 mph N/A   Clear
10:35 AM 53.6 °F - 30.2 °F 41% 30.12 in 10.0 mi NW 12.7 mph 20.7 mph N/A   Clear
10:55 AM 53.6 °F - 28.4 °F 38% 30.13 in 10.0 mi NW 9.2 mph 19.6 mph N/A   Clear
11:15 AM 55.4 °F - 30.2 °F 38% 30.13 in 10.0 mi NW 10.4 mph 16.1 mph N/A   Clear
11:35 AM 55.4 °F - 30.2 °F 38% 30.12 in 10.0 mi NW 9.2 mph 16.1 mph N/A   Clear
11:55 AM 55.4 °F - 28.4 °F 36% 30.11 in 10.0 mi WNW 11.5 mph 20.7 mph N/A   Clear
12:15 PM 57.2 °F - 30.2 °F 36% 30.11 in 10.0 mi WNW 11.5 mph 26.5 mph N/A   Clear
12:35 PM 57.2 °F - 30.2 °F 36% 30.11 in 10.0 mi WNW 10.4 mph 21.9 mph N/A   Clear
12:55 PM 57.2 °F - 30.2 °F 36% 30.11 in 10.0 mi WNW 10.4 mph 28.8 mph N/A   Clear
1:15 PM 57.2 °F - 30.2 °F 36% 30.11 in 10.0 mi West 16.1 mph 21.9 mph N/A   Clear
1:35 PM 57.2 °F - 30.2 °F 36% 30.11 in 10.0 mi WNW 12.7 mph 25.3 mph N/A   Clear
1:55 PM 59.0 °F - 30.2 °F 34% 30.10 in 10.0 mi West 16.1 mph 23.0 mph N/A   Clear
2:15 PM 59.0 °F - 30.2 °F 34% 30.10 in 10.0 mi West 13.8 mph 26.5 mph N/A   Clear
2:35 PM 59.0 °F - 30.2 °F 34% 30.10 in 10.0 mi WNW 13.8 mph 21.9 mph N/A   Clear
2:55 PM 59.0 °F - 30.2 °F 34% 30.11 in 10.0 mi NW 10.4 mph 18.4 mph N/A   Clear
3:15 PM 60.8 °F - 30.2 °F 31% 30.11 in 10.0 mi NNW 9.2 mph 19.6 mph N/A   Clear
3:35 PM 60.8 °F - 26.6 °F 27% 30.12 in 10.0 mi NW 10.4 mph 20.7 mph N/A   Clear
3:55 PM 60.8 °F - 24.8 °F 25% 30.12 in 10.0 mi WNW 17.3 mph 21.9 mph N/A   Clear
4:35 PM 60.8 °F - 23.0 °F 23% 30.15 in 10.0 mi NW 10.4 mph 25.3 mph N/A   Clear
4:55 PM 60.8 °F - 21.2 °F 22% 30.16 in 10.0 mi NW 11.5 mph 23.0 mph N/A   Clear
5:15 PM 59.0 °F - 23.0 °F 25% 30.18 in 10.0 mi NW 9.2 mph 20.7 mph N/A   Clear
5:35 PM 59.0 °F - 21.2 °F 23% 30.17 in 10.0 mi NW 10.4 mph 17.3 mph N/A   Clear
5:55 PM 59.0 °F - 21.2 °F 23% 30.18 in 10.0 mi NNW 8.1 mph 17.3 mph N/A   Clear
6:15 PM 57.2 °F - 21.2 °F 25% 30.19 in 10.0 mi NNW 11.5 mph 16.1 mph N/A   Clear
6:35 PM 57.2 °F - 19.4 °F 23% 30.20 in 10.0 mi NW 10.4 mph 19.6 mph N/A   Clear
6:55 PM 55.4 °F - 19.4 °F 25% 30.22 in 10.0 mi NNW 9.2 mph - N/A   Clear
7:15 PM 55.4 °F - 19.4 °F 25% 30.23 in 10.0 mi NNW 6.9 mph - N/A   Clear
7:35 PM 53.6 °F - 19.4 °F 26% 30.24 in 10.0 mi NW 4.6 mph - N/A   Clear
8:15 PM 53.6 °F - 19.4 °F 26% 30.27 in 10.0 mi NNW 5.8 mph - N/A   Clear
8:35 PM 51.8 °F - 21.2 °F 30% 30.29 in 10.0 mi North 4.6 mph - N/A   Clear
8:55 PM 51.8 °F - 21.2 °F 30% 30.30 in 10.0 mi NNE 3.5 mph - N/A   Clear
9:15 PM 50.0 °F - 23.0 °F 35% 30.31 in 10.0 mi North 4.6 mph - N/A   Clear
9:35 PM 50.0 °F - 21.2 °F 32% 30.31 in 10.0 mi North 4.6 mph - N/A   Clear
9:55 PM 48.2 °F - 23.0 °F 37% 30.32 in 10.0 mi North 3.5 mph - N/A   Clear
10:15 PM 48.2 °F - 21.2 °F 34% 30.33 in 10.0 mi Calm Calm - N/A   Clear
10:55 PM 48.2 °F - 21.2 °F 34% 30.33 in 10.0 mi North 4.6 mph - N/A   Clear
11:35 PM 46.4 °F 45.2 °F 21.2 °F 37% 30.34 in 10.0 mi NNE 3.5 mph - N/A   Clear